User: anonymous   Login
Location: *
(51.1248°S, 108.4023°W)
Time: 16:04:32
(UTC+00:00)
Language:

CZ-4 R/B - Orbit

View from above orbital plane
View from above orbital plane
View from above satellite
View from above satellite

Ground track
Ground track

The orbit data is extracted from the following two-line orbital elements,

1 29507U 06046C   21268.81692496  .00000940  00000-0  76418-4 0  9996
2 29507  97.7657 294.5730 0049533  38.4702 322.0036 15.01140914815167
Epoch (UTC): 25 September 2021 19:36:22
Eccentricity: 0.0049533
inclination: 97.7657°
perigee height: 529 km
apogee height: 598 km
right ascension of ascending node: 294.5730°
argument of perigee: 38.4702°
revolutions per day: 15.01140914
mean anomaly at epoch: 322.0036°
orbit number at epoch: 81516

The dashed part of the orbit path shows where the satellite is in the earth's shadow,  

DLR